Huntsville Madison, AL

10:14 PM CDT on March 25, 2017 (GMT -0500)
Huntsville Madison

Weather History for KMDQ - March, 2013

Change the Weather History Date:

Saturday, March 2, 2013

  Actual Average (KHSV) Record (KHSV)
Temperature  
Mean Temperature 32 °F -  
Max Temperature 33 °F 61 °F 83 °F (1932)
Min Temperature 30 °F 39 °F 10 °F (1980)
Degree Days  
Heating Degree Days 34    
Moisture  
Dew Point 28 °F    
Average Humidity 82    
Maximum Humidity 93    
Minimum Humidity 69    
Precipitation  
Precipitation 0.00 in - - ()
Sea Level Pressure  
Sea Level Pressure 30.08 in    
Wind  
Wind Speed 8 mph (NW)    
Max Wind Speed 14 mph    
Max Gust Speed 18 mph    
Visibility 8 miles    
Events Rain , Snow    
Averages and records for this station are not official NWS values.
T = Trace of Precipitation, MM = Missing Value Source: NWS Daily Summary

Daily Weather History Graph

Daily Weather History Graph

Search for Another Location

Airport or City:

Trip Planner

Search our weather history database for the weather conditions in past years. The results will help you decide how hot, cold, wet, or windy it might be!

Date:

Astronomy

Mar. 02, 2013 Rise Set
Actual Time 6:13 AM CST 5:43 PM CST
Civil Twilight 5:48 AM CST 6:08 PM CST
Nautical Twilight 5:19 AM CST 6:37 PM CST
Astronomical Twilight 4:50 AM CST 7:07 PM CST
Moon 11:06 PM CST (3/2) 8:55 AM CST (3/2)
Length of Visible Light 12h 19m
Length of Day
11h 29m
Waning Gibbous, 74% of the Moon is Illuminated
Mar 2
Waning Gibbous
Mar 4
Last Quarter
Mar 11
New
Mar 19
First Quarter
Mar 27
Full

Hourly Weather History & Observations

Time (CST) Temp. Windchill Dew Point Humidity Pressure Visibility Wind Dir Wind Speed Gust Speed Precip Events Conditions
12:15 AM 32.0 °F 27.5 °F 30.2 °F 93% 30.05 in 5.0 mi West 4.6 mph - N/A Snow Light Snow
12:35 AM 32.0 °F 26.4 °F 30.2 °F 93% 30.05 in 5.0 mi West 5.8 mph - N/A Snow Light Snow
12:55 AM 32.0 °F 26.4 °F 30.2 °F 93% 30.04 in 5.0 mi West 5.8 mph - N/A Snow Light Snow
1:15 AM 32.0 °F 27.5 °F 30.2 °F 93% 30.04 in 3.0 mi West 4.6 mph - N/A Snow Light Snow
1:35 AM 32.0 °F 26.4 °F 30.2 °F 93% 30.04 in 4.0 mi West 5.8 mph - N/A Snow Light Snow
1:55 AM 32.0 °F 26.4 °F 30.2 °F 93% 30.03 in 5.0 mi WNW 5.8 mph - N/A   Overcast
2:15 AM 32.0 °F 25.6 °F 30.2 °F 93% 30.03 in 4.0 mi WNW 6.9 mph - N/A Snow Light Snow
2:35 AM 32.0 °F 24.8 °F 30.2 °F 93% 30.02 in 4.0 mi WNW 8.1 mph - N/A Snow Light Snow
2:55 AM 32.0 °F 26.4 °F 30.2 °F 93% 30.02 in 7.0 mi NW 5.8 mph - N/A   Overcast
3:15 AM 32.0 °F 25.6 °F 30.2 °F 93% 30.02 in 7.0 mi NW 6.9 mph - N/A   Overcast
3:35 AM 32.0 °F 24.8 °F 30.2 °F 93% 30.02 in 7.0 mi NNW 8.1 mph - N/A   Overcast
3:55 AM 32.0 °F 25.6 °F 30.2 °F 93% 30.02 in 7.0 mi NNW 6.9 mph - N/A   Overcast
4:15 AM 32.0 °F 24.8 °F 28.4 °F 87% 30.02 in 10.0 mi NW 8.1 mph - N/A   Overcast
4:35 AM 32.0 °F 24.8 °F 28.4 °F 87% 30.02 in 10.0 mi NNW 8.1 mph - N/A   Overcast
4:55 AM 32.0 °F 25.6 °F 28.4 °F 87% 30.03 in 10.0 mi NW 6.9 mph - N/A   Mostly Cloudy
5:15 AM 32.0 °F - 28.4 °F 87% 30.03 in 10.0 mi Calm Calm - N/A   Mostly Cloudy
5:35 AM 32.0 °F - 28.4 °F 87% 30.04 in 10.0 mi Calm Calm - N/A   Overcast
5:55 AM 32.0 °F - 28.4 °F 87% 30.04 in 10.0 mi Calm Calm - N/A   Overcast
6:15 AM 32.0 °F 27.5 °F 28.4 °F 87% 30.04 in 10.0 mi NW 4.6 mph - N/A   Overcast
6:35 AM 32.0 °F 24.2 °F 28.4 °F 87% 30.05 in 10.0 mi NNW 9.2 mph - N/A   Mostly Cloudy
6:55 AM 32.0 °F 25.6 °F 26.6 °F 80% 30.05 in 10.0 mi NNW 6.9 mph - N/A   Scattered Clouds
7:15 AM 32.0 °F 25.6 °F 28.4 °F 87% 30.06 in 10.0 mi NNW 6.9 mph - N/A   Mostly Cloudy
7:35 AM 32.0 °F 24.8 °F 28.4 °F 87% 30.06 in 10.0 mi NW 8.1 mph - N/A   Mostly Cloudy
7:55 AM 32.0 °F 24.2 °F 28.4 °F 87% 30.07 in 10.0 mi NW 9.2 mph - N/A   Overcast
8:15 AM 32.0 °F 24.2 °F 26.6 °F 80% 30.07 in 10.0 mi NW 9.2 mph - N/A   Overcast
8:35 AM 32.0 °F 23.0 °F 28.4 °F 87% 30.07 in 10.0 mi WNW 11.5 mph - N/A   Overcast
8:55 AM 32.0 °F 23.0 °F 26.6 °F 80% 30.07 in 10.0 mi NW 11.5 mph - N/A   Overcast
9:15 AM 33.8 °F 25.8 °F 28.4 °F 81% 30.08 in 10.0 mi NW 10.4 mph - N/A   Mostly Cloudy
9:35 AM 33.8 °F 25.8 °F 26.6 °F 75% 30.08 in 10.0 mi WNW 10.4 mph - N/A   Mostly Cloudy
9:55 AM 33.8 °F 27.0 °F 26.6 °F 75% 30.08 in 10.0 mi NW 8.1 mph - N/A   Overcast
10:15 AM 33.8 °F 25.8 °F 26.6 °F 75% 30.09 in 10.0 mi WNW 10.4 mph - N/A   Overcast
10:35 AM 33.8 °F 25.3 °F 26.6 °F 75% 30.08 in 10.0 mi NW 11.5 mph 16.1 mph N/A Rain Light Rain
10:55 AM 33.8 °F 25.3 °F 28.4 °F 81% 30.08 in 7.0 mi WNW 11.5 mph - N/A   Overcast
11:15 AM 33.8 °F 27.0 °F 26.6 °F 75% 30.08 in 10.0 mi NW 8.1 mph - N/A   Overcast
11:35 AM 33.8 °F 25.8 °F 28.4 °F 81% 30.09 in 7.0 mi NW 10.4 mph 16.1 mph N/A Snow Light Snow
11:55 AM 33.8 °F 26.4 °F 28.4 °F 81% 30.08 in 10.0 mi NW 9.2 mph - N/A Snow Light Snow
12:15 PM 33.8 °F 25.8 °F 26.6 °F 75% 30.08 in 7.0 mi WNW 10.4 mph - N/A Snow Light Snow
12:35 PM 33.8 °F 25.8 °F 28.4 °F 81% 30.07 in 7.0 mi NW 10.4 mph - N/A Snow Light Snow
12:55 PM 33.8 °F 26.4 °F 28.4 °F 81% 30.07 in 10.0 mi WNW 9.2 mph - N/A Snow Light Snow
1:15 PM 33.8 °F 25.3 °F 28.4 °F 81% 30.06 in 4.0 mi WNW 11.5 mph - N/A Snow Light Snow
1:35 PM 33.8 °F 25.3 °F 30.2 °F 87% 30.06 in 5.0 mi WNW 11.5 mph 17.3 mph N/A Snow Light Snow
1:55 PM 33.8 °F 24.8 °F 28.4 °F 81% 30.06 in 4.0 mi WNW 12.7 mph 18.4 mph N/A Snow Light Snow
2:15 PM 33.8 °F 24.8 °F 28.4 °F 81% 30.06 in 7.0 mi WNW 12.7 mph - N/A Snow Light Snow
2:35 PM 33.8 °F 26.4 °F 28.4 °F 81% 30.06 in 10.0 mi NW 9.2 mph - N/A Snow Light Snow
2:55 PM 33.8 °F 25.3 °F 28.4 °F 81% 30.06 in 10.0 mi NW 11.5 mph 17.3 mph N/A   Overcast
3:35 PM 33.8 °F 24.3 °F 28.4 °F 81% 30.07 in 10.0 mi NW 13.8 mph - N/A   Overcast
3:55 PM 33.8 °F 25.3 °F 28.4 °F 81% 30.07 in 10.0 mi NNW 11.5 mph - N/A   Overcast
4:15 PM 33.8 °F 25.3 °F 28.4 °F 81% 30.08 in 7.0 mi NNW 11.5 mph 17.3 mph N/A Snow Light Snow
4:35 PM 33.8 °F 25.8 °F 28.4 °F 81% 30.08 in 7.0 mi NNW 10.4 mph - N/A Snow Light Snow
4:55 PM 33.8 °F 25.3 °F 28.4 °F 81% 30.09 in 7.0 mi NNW 11.5 mph - N/A Snow Light Snow
5:35 PM 32.0 °F 23.0 °F 26.6 °F 80% 30.10 in 10.0 mi NNW 11.5 mph 17.3 mph N/A Snow Light Snow
5:55 PM 32.0 °F 23.6 °F 26.6 °F 80% 30.11 in 7.0 mi NW 10.4 mph - N/A Snow Light Snow
6:15 PM 32.0 °F 23.0 °F 26.6 °F 80% 30.11 in 7.0 mi NNW 11.5 mph - N/A Snow Light Snow
6:35 PM 32.0 °F 23.6 °F 26.6 °F 80% 30.12 in 7.0 mi NW 10.4 mph - N/A Snow Light Snow
6:55 PM 32.0 °F 22.5 °F 26.6 °F 80% 30.12 in 5.0 mi NNW 12.7 mph - N/A Snow Light Snow
7:15 PM 32.0 °F 23.6 °F 26.6 °F 80% 30.12 in 7.0 mi NNW 10.4 mph - N/A Snow Light Snow
7:35 PM 32.0 °F 24.2 °F 26.6 °F 80% 30.12 in 10.0 mi NNW 9.2 mph - N/A Snow Light Snow
8:15 PM 32.0 °F 22.5 °F 26.6 °F 80% 30.13 in 10.0 mi NNW 12.7 mph - N/A Snow Light Snow
8:35 PM 32.0 °F 23.6 °F 26.6 °F 80% 30.14 in 7.0 mi NNW 10.4 mph - N/A Snow Light Snow
8:55 PM 32.0 °F 23.6 °F 24.8 °F 75% 30.14 in 10.0 mi NNW 10.4 mph - N/A   Overcast
9:15 PM 32.0 °F 24.8 °F 24.8 °F 75% 30.14 in 10.0 mi NNW 8.1 mph - N/A Snow Light Snow
9:35 PM 32.0 °F 24.2 °F 24.8 °F 75% 30.14 in 10.0 mi North 9.2 mph - N/A   Overcast
9:55 PM 32.0 °F 24.8 °F 24.8 °F 75% 30.14 in 10.0 mi NNW 8.1 mph - N/A   Overcast
10:15 PM 30.2 °F 22.6 °F 23.0 °F 75% 30.14 in 10.0 mi NNW 8.1 mph - N/A   Scattered Clouds
10:35 PM 30.2 °F 23.4 °F 23.0 °F 75% 30.13 in 10.0 mi NNW 6.9 mph - N/A   Mostly Cloudy
10:55 PM 32.0 °F 25.6 °F 23.0 °F 69% 30.13 in 10.0 mi NNW 6.9 mph - N/A   Overcast
11:15 PM 32.0 °F 23.6 °F 23.0 °F 69% 30.13 in 10.0 mi NW 10.4 mph - N/A   Overcast
11:35 PM 32.0 °F 24.8 °F 23.0 °F 69% 30.13 in 10.0 mi NNW 8.1 mph - N/A   Overcast
11:55 PM 32.0 °F 23.6 °F 23.0 °F 69% 30.13 in 10.0 mi NNW 10.4 mph - N/A   Overcast